Flag for Canada Weather past 2 weeks in Kingston, Ontario, Canada

Now
23 °F

Passing clouds.


Feels Like: 14 °F
Forecast: N/A
Wind: 8 mph from Southwest

Location: Kingston

Current Time: Jan 28, 2015 at 5:36:42 PM

Latest Report: Jan 28, 2015 at 5:00 PM


Visibility: 15 mi

Pressure: 30.30 "Hg

Humidity: 42%

Dew point: 3 °F

Location of KingstonLocation

Historic Weather in Kingston — Graph

°F

Kingston temperature yesterday

Maximum temperature yesterday: 14 °F (at 2:00 PM)
Minimum temperature yesterday: 5 °F (at 6:00 AM)
Average temperature yesterday: 10 °F

Past Weeks' High & Low Weather Summary

 TemperatureHumidityPressure
High36 °F (Jan 18, 12:00 PM)100% (Jan 18, 9:00 PM)30.77 "Hg (Jan 18, 9:00 PM)
Low-9 °F (Jan 13, 11:00 PM)23% (Jan 28, 2:00 PM)29.41 "Hg (Jan 24, 10:00 PM)
Average16 °F69%30.05 "Hg
* Reported Jan 13 4:00 PM — Jan 28 4:00 PM, Kingston, Weather by CustomWeather, © 2014

Note: Actual official high and low records may vary slightly from our data, if they occured in-between our weather recording intervals... More about our weather records

Advertising

Kingston weather history for previous 24 hours

 ConditionsComfort  
Time TempWeatherWind HumidityBarometerVisibility
4:00 PM
Jan 28
25 °FPassing clouds.5 mph28%30.29 "Hg15 mi
3:00 PM23 °FPassing clouds.6 mph42%30.28 "Hg15 mi
2:00 PM25 °FPassing clouds.6 mph23%30.26 "Hg15 mi
1:00 PM21 °FPassing clouds.5 mph27%30.27 "Hg15 mi
12:00 PM18 °FSunny.9 mph32%30.28 "Hg15 mi
11:00 AM14 °FPassing clouds.5 mph34%30.28 "Hg15 mi
10:00 AM10 °FPassing clouds.6 mph40%30.27 "Hg15 mi
9:00 AM7 °FPassing clouds.6 mph56%30.26 "Hg15 mi
8:00 AM1 °FPassing clouds.5 mph65%30.24 "Hg15 mi
7:00 AM1 °FPassing clouds.No wind71%30.21 "Hg15 mi
6:00 AM3 °FClear.6 mph66%30.17 "Hg15 mi
11:00 PM
Jan 27
9 °FOvercast.5 mph51%30.08 "Hg15 mi
10:00 PM9 °FHigh level clouds.7 mph51%30.08 "Hg15 mi
9:00 PM10 °FPassing clouds.8 mph47%30.09 "Hg15 mi
8:00 PM10 °FPassing clouds.9 mph47%30.11 "Hg15 mi
7:00 PM10 °FPassing clouds.8 mph47%30.11 "Hg15 mi
6:00 PM12 °FPassing clouds.7 mph44%30.10 "Hg15 mi
5:00 PM14 °FPartly sunny.14 mph37%30.09 "Hg15 mi
Weather by CustomWeather, © 2014

See weather overviewHow to use our weather pages